This demonstration page uses our WeatherBlox Daily Observations layout. Learn more.

Left ArrowRight Arrow

Hourly Observations for June 20, 2020

Temp ( °F °C ) Dew Point ( °F °C ) Humidity (%) Winds ( mph kmh ) Pressure ( in mb ) Visibility ( mi km ) Precip ( " mm )
12:56 am 00:56 Cloudy 68 19.9 61 16.3 80 80 NE 3 6 30.00 1016 10 16 0.00 0.00
1:56 am 01:56 Cloudy 67 19.4 61 16 81 81 Calm 30.00 1016 10 16 0.00 0.00
2:56 am 02:56 Partly Cloudy 63 17.3 60 15.6 90 90 Calm 29.97 1015 10 16 0.00 0.00
3:56 am 03:56 Mostly Clear 65 18.2 61 16 87 87 NNE 3 6 29.95 1014 10 16 0.00 0.00
4:56 am 04:56 Clear 64 17.5 61 16 91 91 NE 8 13 29.91 1013 10 16 0.00 0.00
5:56 am 05:56 Cloudy 64 17.8 61 15.9 89 89 Calm 29.93 1013 10 16 0.00 0.00
6:56 am 06:56 Mostly Cloudy 65 18.6 61 16 85 85 Calm 29.97 1015 10 16 0.00 0.00
7:56 am 07:56 Cloudy 66 18.9 62 16.9 88 88 Calm 29.98 1015 10 16 0.00 0.00
8:56 am 08:56 Mostly Cloudy 68 20.1 62 16.9 82 82 Calm 29.98 1015 10 16 0.00 0.00
9:56 am 09:56 Cloudy 70 21.1 64 17.7 81 81 Calm 29.98 1015 10 16 0.00 0.00
10:56 am 10:56 Mostly Cloudy with Drizzle 73 22.6 65 18.3 77 77 Calm 29.96 1015 10 16 0.00 0.00
11:56 am 11:56 Mostly Cloudy 75 24 65 18.4 71 71 WNW 5 7 29.94 1014 10 16 0.00 0.00
12:56 pm 12:56 Partly Cloudy 78 25.7 65 18.6 65 65 WSW 5 7 29.94 1014 10 16 0.00 0.00
1:56 pm 13:56 Mostly Cloudy with Drizzle 79 26 65 18.1 62 62 NNW 6 9 29.91 1013 10 16 0.00 0.00
2:56 pm 14:56 Mostly Cloudy 80 26.6 64 17.9 59 59 WSW 8 13 29.90 1013 10 16 0.00 0.00
3:56 pm 15:56 Mostly Sunny 83 28.2 64 18 54 54 SW 3 6 29.89 1012 10 16 0.00 0.00
4:56 pm 16:56 Partly Cloudy 83 28.1 64 17.9 54 54 WSW 9 15 29.87 1012 10 16 0.00 0.00
5:56 pm 17:56 Sunny 84 28.7 64 17.5 51 51 WSW 8 13 29.85 1011 10 16 0.00 0.00
6:56 pm 18:56 Partly Cloudy 83 28.6 64 17.7 52 52 WSW 5 7 29.84 1011 10 16 0.00 0.00
7:56 pm 19:56 Sunny 82 27.7 65 18.1 56 56 SSW 7 11 29.84 1011 10 16 0.00 0.00
8:56 pm 20:56 Sunny 78 25.8 64 17.9 62 62 SW 3 6 29.85 1011 10 16 0.00 0.00
9:56 pm 21:56 Clear 75 24.1 65 18.3 70 70 SSW 3 6 29.86 1011 10 16 0.00 0.00
10:56 pm 22:56 Clear 74 23.4 64 18 72 72 SW 3 6 29.88 1012 10 16 0.00 0.00
11:56 pm 23:56 Cloudy with Light Rain 76 24.2 62 16.7 63 63 SW 9 15 29.87 1012 6 10 0.00 0.00

Powered by AerisWeather